contact:dominique.lefevre@mio.osupytheas.fr, maurice.libes@osupytheas.fr, didier.mallarino@osupytheas.fr
Project:EMSO http://www.emso-fr.org/EMSO-France
Depth: 2436.0 m
Title:EMSO Ligure Ouest : Data MII capteur AQUADOPP
Date,Latitude,Longitude,X_East,Y_North,Z_Up,Amplitude_X,Amplitude_Y,Amplitude_Z,Batterie,SoundSpeed,Heading,Pitch,Roll,Pressure,TIS,Speed,Direction
, degrees North, degrees East, m.s-1, m.s-1,m.s-1, 1, 1, 1, Volt, m.s-1, degree, degree, degree, dbar, degree_C, m.s-1, degree
2020-11-06T12:55:03,42.805,6.029,0.02,-0.016,-0.008,101.0,105.0,100.0,13.3,1505.1,324.0,-0.7,1.8,2470.963,13.27,0.025,128.7
2020-11-06T12:58:03,42.805,6.029,0.024,-0.025,0.0,101.0,104.0,99.0,13.4,1505.2,326.5,-0.7,1.9,2470.736,13.29,0.034,136.2
2020-11-06T13:04:03,42.805,6.029,0.044,-0.037,-0.03,101.0,103.0,99.0,13.4,1505.2,326.8,-0.8,1.8,2470.515,13.29,0.057,130.1
2020-11-06T13:07:03,42.805,6.029,0.014,-0.03,-0.001,101.0,103.0,98.0,13.4,1505.2,325.6,-0.7,1.8,2470.424,13.3,0.033,155.0
2020-11-06T13:10:03,42.805,6.029,0.063,-0.023,0.044,101.0,106.0,99.0,13.3,1505.3,325.6,-0.7,1.8,2470.34,13.31,0.067,110.1
2020-11-06T13:13:03,42.805,6.029,0.023,-0.022,-0.008,101.0,105.0,97.0,13.3,1505.3,326.4,-0.7,1.8,2470.278,13.31,0.031,133.7
2020-11-06T13:16:03,42.805,6.029,0.026,-0.02,-0.02,100.0,104.0,100.0,13.3,1505.3,326.5,-0.7,1.9,2470.29,13.32,0.032,127.6
2020-11-06T13:19:03,42.805,6.029,0.028,-0.021,0.005,100.0,104.0,99.0,13.4,1505.3,326.6,-0.7,1.8,2470.188,13.32,0.035,126.9
2020-11-06T13:22:03,42.805,6.029,0.034,-0.023,0.0,101.0,104.0,100.0,13.3,1505.3,325.4,-0.7,1.8,2470.229,13.32,0.041,124.1
2020-11-06T13:25:03,42.805,6.029,0.037,-0.03,0.013,101.0,104.0,99.0,13.3,1505.3,326.5,-0.7,1.8,2470.269,13.32,0.047,129.0
2020-11-06T13:28:03,42.805,6.029,0.035,-0.018,0.004,102.0,105.0,100.0,13.3,1505.3,325.2,-0.7,1.9,2470.234,13.32,0.039,117.2
2020-11-06T13:31:03,42.805,6.029,0.038,-0.031,-0.009,101.0,104.0,99.0,13.4,1505.3,325.9,-0.7,1.8,2470.264,13.32,0.049,129.2
2020-11-06T13:34:03,42.805,6.029,-0.003,-0.007,0.016,102.0,104.0,99.0,13.4,1505.3,325.6,-0.7,1.9,2470.205,13.32,0.007,203.2
2020-11-06T13:37:03,42.805,6.029,0.017,-0.037,-0.029,101.0,103.0,100.0,13.4,1505.3,323.1,-0.7,1.8,2470.225,13.32,0.04,155.3
2020-11-06T13:40:03,42.805,6.029,0.025,-0.037,0.013,102.0,103.0,100.0,13.4,1505.3,325.1,-0.7,1.8,2470.269,13.32,0.044,146.0
2020-11-06T13:43:03,42.805,6.029,0.033,-0.037,-0.028,102.0,102.0,100.0,13.4,1505.3,325.5,-0.7,1.8,2470.285,13.32,0.049,138.3
2020-11-06T13:46:03,42.805,6.029,0.015,-0.029,-0.006,101.0,103.0,100.0,13.4,1505.3,326.7,-0.7,1.8,2470.256,13.32,0.032,152.6
2020-11-06T13:49:03,42.805,6.029,0.015,-0.029,-0.01,101.0,103.0,99.0,13.3,1505.3,327.8,-0.7,1.9,2470.29,13.32,0.032,152.6
2020-11-06T13:52:03,42.805,6.029,0.015,-0.016,0.009,101.0,104.0,100.0,13.4,1505.3,324.5,-0.7,1.8,2470.284,13.32,0.021,136.9
2020-11-06T13:55:03,42.805,6.029,0.02,-0.004,0.015,103.0,106.0,102.0,13.4,1505.3,322.7,-0.7,1.8,2470.326,13.32,0.02,101.3
2020-11-06T13:58:03,42.805,6.029,0.038,-0.03,0.02,103.0,104.0,100.0,13.4,1505.3,324.9,-0.7,1.8,2470.323,13.32,0.048,128.3
2020-11-06T14:04:03,42.805,6.029,0.042,-0.027,0.01,101.0,104.0,100.0,13.4,1505.2,326.6,-0.7,1.8,2470.39,13.3,0.049,122.7
2020-11-06T14:07:03,42.805,6.029,0.012,-0.026,0.004,103.0,104.0,101.0,13.4,1505.3,324.5,-0.7,1.8,2470.387,13.31,0.028,155.2
2020-11-06T14:10:03,42.805,6.029,0.044,-0.044,0.019,101.0,103.0,100.0,13.3,1505.3,325.4,-0.7,1.8,2470.338,13.31,0.062,135.0
2020-11-06T14:13:03,42.805,6.029,0.055,-0.039,-0.014,100.0,103.0,100.0,13.3,1505.3,326.2,-0.7,1.8,2470.334,13.32,0.067,125.3
2020-11-06T14:16:03,42.805,6.029,0.067,-0.05,0.027,100.0,103.0,100.0,13.4,1505.3,328.3,-0.7,1.8,2470.322,13.32,0.083,126.7
2020-11-06T14:19:03,42.805,6.029,0.027,-0.023,-0.004,101.0,104.0,100.0,13.4,1505.3,327.4,-0.7,1.8,2470.32,13.32,0.035,130.4
2020-11-06T14:22:03,42.805,6.029,0.037,-0.025,-0.003,101.0,102.0,100.0,13.4,1505.3,324.1,-0.7,1.8,2470.318,13.32,0.044,124.0
2020-11-06T14:25:03,42.805,6.029,0.035,-0.029,-0.017,101.0,103.0,99.0,13.4,1505.3,323.3,-0.7,1.8,2470.301,13.32,0.045,129.6
2020-11-06T14:28:03,42.805,6.029,0.022,-0.007,0.011,101.0,102.0,100.0,13.4,1505.3,324.7,-0.7,1.8,2470.31,13.32,0.023,107.6
2020-11-06T14:31:03,42.805,6.029,0.02,-0.035,0.003,101.0,103.0,99.0,13.4,1505.3,323.6,-0.7,1.8,2470.335,13.32,0.04,150.3
2020-11-06T14:34:03,42.805,6.029,0.064,-0.037,0.04,102.0,104.0,99.0,13.3,1505.3,327.9,-0.7,1.8,2470.292,13.32,0.073,120.0
2020-11-06T14:37:03,42.805,6.029,0.043,-0.033,0.0,101.0,105.0,99.0,13.4,1505.3,328.4,-0.7,1.8,2470.309,13.32,0.054,127.5
2020-11-06T14:40:03,42.805,6.029,0.017,-0.039,0.031,100.0,104.0,101.0,13.3,1505.3,327.9,-0.7,1.8,2470.321,13.32,0.042,156.5
2020-11-06T14:43:03,42.805,6.029,0.042,-0.043,0.015,101.0,104.0,99.0,13.4,1505.3,324.5,-0.7,1.8,2470.303,13.32,0.06,135.7
2020-11-06T14:46:03,42.805,6.029,0.031,-0.043,0.032,101.0,105.0,99.0,13.4,1505.3,326.2,-0.7,1.9,2470.323,13.32,0.053,144.2
2020-11-06T14:49:03,42.805,6.029,0.034,-0.038,0.004,101.0,103.0,99.0,13.4,1505.3,324.2,-0.7,1.8,2470.333,13.32,0.05,138.2
2020-11-06T14:52:03,42.805,6.029,0.023,-0.038,-0.024,102.0,102.0,99.0,13.3,1505.3,326.2,-0.7,1.8,2470.306,13.32,0.044,148.8
2020-11-06T14:55:03,42.805,6.029,0.022,-0.04,0.012,102.0,104.0,99.0,13.3,1505.3,325.2,-0.7,1.8,2470.302,13.32,0.045,151.2
2020-11-06T14:58:03,42.805,6.029,0.011,-0.036,-0.017,101.0,103.0,100.0,13.4,1505.3,326.5,-0.7,1.8,2470.338,13.32,0.037,163.0
2020-11-06T15:04:03,42.805,6.029,0.014,-0.018,-0.006,101.0,103.0,99.0,13.4,1505.2,325.7,-0.8,1.8,2470.413,13.3,0.022,142.1
2020-11-06T15:07:03,42.805,6.029,0.049,-0.049,-0.004,100.0,103.0,100.0,13.4,1505.3,326.8,-0.7,1.8,2470.431,13.31,0.069,135.0
2020-11-06T15:10:03,42.805,6.029,0.033,-0.047,-0.024,101.0,102.0,100.0,13.4,1505.3,324.1,-0.7,1.8,2470.354,13.32,0.057,144.9
2020-11-06T15:13:03,42.805,6.029,0.041,-0.023,-0.012,100.0,104.0,98.0,13.4,1505.3,326.1,-0.7,1.8,2470.372,13.32,0.047,119.3
2020-11-06T15:16:03,42.805,6.029,0.025,-0.052,-0.007,101.0,104.0,99.0,13.4,1505.3,326.5,-0.7,1.8,2470.384,13.32,0.057,154.3
2020-11-06T15:19:03,42.805,6.029,0.051,-0.034,0.002,102.0,104.0,99.0,13.4,1505.3,323.9,-0.7,1.8,2470.333,13.32,0.061,123.7
2020-11-06T15:22:03,42.805,6.029,0.005,-0.021,0.016,100.0,102.0,100.0,13.4,1505.3,326.1,-0.7,1.8,2470.347,13.32,0.021,166.6
2020-11-06T15:25:03,42.805,6.029,0.031,-0.012,0.005,101.0,103.0,98.0,13.4,1505.3,324.2,-0.7,1.8,2470.35,13.32,0.033,111.2
2020-11-06T15:28:03,42.805,6.029,0.011,-0.034,0.007,101.0,104.0,98.0,13.3,1505.3,326.0,-0.7,1.8,2470.361,13.32,0.035,162.1
2020-11-06T15:31:03,42.805,6.029,0.04,-0.045,0.012,101.0,103.0,100.0,13.4,1505.3,325.2,-0.7,1.8,2470.35,13.32,0.06,138.4
2020-11-06T15:34:03,42.805,6.029,0.004,-0.013,-0.029,100.0,104.0,98.0,13.4,1505.3,323.9,-0.7,1.8,2470.288,13.32,0.013,162.9
2020-11-06T15:37:03,42.805,6.029,-0.016,-0.045,-0.019,101.0,104.0,99.0,13.4,1505.3,326.8,-0.7,1.8,2470.315,13.32,0.047,199.6
2020-11-06T15:40:03,42.805,6.029,0.017,-0.048,-0.011,101.0,104.0,99.0,13.3,1505.3,325.5,-0.7,1.8,2470.347,13.32,0.05,160.5
2020-11-06T15:43:03,42.805,6.029,-0.003,-0.043,0.001,100.0,104.0,98.0,13.4,1505.3,327.3,-0.7,1.8,2470.316,13.32,0.043,184.0
2020-11-06T15:46:03,42.805,6.029,-0.006,-0.028,-0.011,100.0,103.0,99.0,13.4,1505.3,323.4,-0.7,1.8,2470.3,13.32,0.028,192.1
2020-11-06T15:49:03,42.805,6.029,0.014,-0.041,-0.021,100.0,104.0,100.0,13.4,1505.3,323.3,-0.7,1.9,2470.358,13.32,0.043,161.1
2020-11-06T15:52:03,42.805,6.029,0.02,-0.034,0.016,100.0,102.0,100.0,13.3,1505.3,324.1,-0.7,1.8,2470.32,13.32,0.039,149.5
2020-11-06T15:55:03,42.805,6.029,0.019,-0.026,0.0,101.0,103.0,99.0,13.3,1505.3,324.7,-0.7,1.8,2470.323,13.32,0.032,143.8
2020-11-06T15:58:03,42.805,6.029,0.013,-0.012,0.02,102.0,104.0,100.0,13.4,1505.3,328.5,-0.7,1.8,2470.317,13.32,0.017,132.7
2020-11-06T16:04:03,42.805,6.029,0.044,-0.031,0.019,102.0,103.0,99.0,13.4,1505.2,327.6,-0.8,1.8,2470.412,13.3,0.053,125.2
2020-11-06T16:07:03,42.805,6.029,0.024,-0.053,-0.032,101.0,103.0,99.0,13.3,1505.3,326.5,-0.7,1.8,2470.372,13.31,0.058,155.6
2020-11-06T16:10:03,42.805,6.029,0.015,-0.022,0.006,100.0,104.0,99.0,13.4,1505.3,324.0,-0.7,1.8,2470.394,13.32,0.026,145.7
2020-11-06T16:13:03,42.805,6.029,0.028,-0.005,0.064,103.0,101.0,99.0,13.4,1505.3,325.4,-0.7,1.9,2470.332,13.32,0.028,100.1
2020-11-06T16:16:03,42.805,6.029,0.032,-0.027,0.018,101.0,104.0,99.0,13.4,1505.3,325.0,-0.7,1.9,2470.324,13.32,0.041,130.2
2020-11-06T16:19:03,42.805,6.029,0.029,-0.019,0.027,100.0,104.0,99.0,13.3,1505.3,325.8,-0.7,1.8,2470.343,13.32,0.034,123.2
2020-11-06T16:22:03,42.805,6.029,0.035,-0.037,0.011,102.0,103.0,99.0,13.3,1505.3,326.0,-0.7,1.8,2470.318,13.32,0.05,136.6
2020-11-06T16:25:03,42.805,6.029,0.028,-0.034,0.01,100.0,103.0,101.0,13.3,1505.3,323.5,-0.7,1.8,2470.302,13.32,0.044,140.5
2020-11-06T16:28:03,42.805,6.029,0.014,-0.021,-0.006,100.0,104.0,100.0,13.4,1505.3,323.3,-0.7,1.8,2470.356,13.32,0.025,146.3
2020-11-06T16:31:03,42.805,6.029,0.01,-0.037,0.028,102.0,103.0,99.0,13.4,1505.3,326.0,-0.7,1.8,2470.353,13.32,0.038,164.9
2020-11-06T16:34:03,42.805,6.029,0.053,-0.044,-0.015,100.0,102.0,98.0,13.4,1505.3,326.7,-0.7,1.8,2470.322,13.32,0.068,129.7
2020-11-06T16:37:03,42.805,6.029,0.054,-0.037,0.036,99.0,104.0,100.0,13.3,1505.3,324.1,-0.7,1.8,2470.351,13.32,0.065,124.4
2020-11-06T16:40:03,42.805,6.029,0.014,-0.044,0.008,99.0,104.0,100.0,13.4,1505.3,327.8,-0.7,1.9,2470.303,13.32,0.046,162.4
2020-11-06T16:43:03,42.805,6.029,0.007,-0.042,-0.018,101.0,103.0,99.0,13.4,1505.3,328.1,-0.7,1.8,2470.325,13.32,0.042,170.5
2020-11-06T16:46:03,42.805,6.029,0.0,-0.032,-0.011,101.0,104.0,100.0,13.3,1505.3,326.0,-0.7,1.8,2470.314,13.32,0.032,180.0
2020-11-06T16:49:03,42.805,6.029,0.032,-0.039,0.021,101.0,105.0,98.0,13.4,1505.3,324.3,-0.7,1.8,2470.371,13.32,0.05,140.6
2020-11-06T16:55:03,42.805,6.029,0.027,-0.058,-0.002,100.0,102.0,100.0,13.4,1505.2,325.4,-0.7,1.8,2470.349,13.3,0.063,155.0
2020-11-06T16:58:03,42.805,6.029,0.02,-0.037,0.016,100.0,103.0,99.0,13.4,1505.3,325.8,-0.7,1.8,2470.392,13.31,0.042,151.6
2020-11-06T17:04:03,42.805,6.029,0.003,-0.069,-0.013,100.0,103.0,99.0,13.3,1505.2,325.6,-0.7,1.9,2470.43,13.3,0.069,177.5
2020-11-06T17:07:03,42.805,6.029,0.037,-0.035,0.017,100.0,103.0,100.0,13.4,1505.3,324.1,-0.7,1.8,2470.407,13.31,0.05,133.4
2020-11-06T17:10:03,42.805,6.029,-0.001,-0.041,-0.046,102.0,102.0,99.0,13.4,1505.3,325.4,-0.7,1.8,2470.407,13.31,0.041,181.4
2020-11-06T17:13:03,42.805,6.029,0.005,-0.044,-0.001,100.0,102.0,100.0,13.3,1505.3,324.8,-0.7,1.8,2470.384,13.32,0.044,173.5
2020-11-06T17:16:03,42.805,6.029,0.03,-0.024,0.022,101.0,103.0,98.0,13.3,1505.3,324.6,-0.7,1.8,2470.324,13.32,0.038,128.7
2020-11-06T17:19:03,42.805,6.029,0.042,-0.034,0.0,100.0,103.0,100.0,13.4,1505.3,324.5,-0.7,1.8,2470.315,13.32,0.054,129.0
2020-11-06T17:22:03,42.805,6.029,0.056,-0.038,0.024,102.0,105.0,99.0,13.3,1505.3,325.6,-0.7,1.8,2470.329,13.32,0.067,124.2
2020-11-06T17:25:03,42.805,6.029,0.015,-0.028,-0.001,99.0,105.0,100.0,13.4,1505.3,325.6,-0.7,1.8,2470.314,13.32,0.031,151.8
2020-11-06T17:28:03,42.805,6.029,0.046,-0.057,-0.027,102.0,102.0,100.0,13.3,1505.3,326.7,-0.7,1.9,2470.321,13.32,0.073,141.1
2020-11-06T17:31:03,42.805,6.029,0.028,-0.06,0.0,101.0,104.0,99.0,13.4,1505.3,326.0,-0.7,1.8,2470.338,13.32,0.066,155.0
2020-11-06T17:34:03,42.805,6.029,0.017,-0.032,0.0,100.0,103.0,99.0,13.4,1505.3,323.4,-0.7,1.8,2470.289,13.32,0.036,152.0
2020-11-06T17:37:03,42.805,6.029,0.002,-0.045,0.0,102.0,103.0,99.0,13.4,1505.3,327.4,-0.7,1.8,2470.32,13.32,0.045,177.5
2020-11-06T17:40:03,42.805,6.029,0.02,-0.019,0.038,101.0,103.0,99.0,13.4,1505.3,324.3,-0.7,1.8,2470.312,13.32,0.027,133.5
2020-11-06T17:43:03,42.805,6.029,0.028,-0.059,-0.004,102.0,103.0,99.0,13.4,1505.3,324.2,-0.7,1.9,2470.328,13.32,0.065,154.6
2020-11-06T17:46:03,42.805,6.029,0.028,-0.045,0.005,101.0,102.0,99.0,13.3,1505.3,325.8,-0.7,1.8,2470.284,13.32,0.053,148.1
2020-11-06T17:49:03,42.805,6.029,0.014,-0.043,-0.001,99.0,103.0,100.0,13.4,1505.3,325.2,-0.7,1.8,2470.272,13.32,0.045,162.0
2020-11-06T17:52:03,42.805,6.029,0.011,-0.069,-0.037,100.0,104.0,100.0,13.3,1505.3,323.1,-0.7,1.8,2470.326,13.32,0.069,170.9
2020-11-06T17:55:03,42.805,6.029,0.031,-0.028,-0.026,101.0,104.0,99.0,13.4,1505.3,327.2,-0.7,1.8,2470.334,13.32,0.041,132.1
2020-11-06T17:58:03,42.805,6.029,0.017,-0.044,0.024,102.0,103.0,99.0,13.3,1505.3,323.4,-0.7,1.9,2470.318,13.32,0.047,158.9
2020-11-06T18:04:03,42.805,6.029,0.029,-0.053,-0.027,101.0,103.0,99.0,13.4,1505.2,323.6,-0.7,1.8,2470.353,13.3,0.06,151.3
2020-11-06T18:07:03,42.805,6.029,0.022,-0.034,0.014,100.0,102.0,99.0,13.3,1505.3,325.6,-0.7,1.9,2470.433,13.31,0.04,147.1
2020-11-06T18:10:03,42.805,6.029,0.01,-0.053,0.009,102.0,102.0,99.0,13.4,1505.3,327.2,-0.7,1.8,2470.348,13.32,0.053,169.3
2020-11-06T18:13:03,42.805,6.029,0.0,-0.049,-0.015,101.0,102.0,100.0,13.4,1505.3,325.5,-0.7,1.8,2470.353,13.32,0.049,180.0
2020-11-06T18:16:03,42.805,6.029,0.002,-0.04,0.002,101.0,104.0,97.0,13.3,1505.3,326.2,-0.7,1.8,2470.377,13.32,0.04,177.1
2020-11-06T18:19:03,42.805,6.029,0.009,-0.038,0.002,102.0,103.0,99.0,13.3,1505.3,325.0,-0.7,1.8,2470.363,13.32,0.039,166.7
2020-11-06T18:22:03,42.805,6.029,0.027,-0.048,-0.006,100.0,104.0,99.0,13.4,1505.3,327.0,-0.7,1.8,2470.33,13.32,0.055,150.6
2020-11-06T18:25:03,42.805,6.029,0.008,-0.041,-0.043,101.0,104.0,99.0,13.3,1505.3,326.0,-0.7,1.8,2470.335,13.32,0.041,169.0
2020-11-06T18:28:03,42.805,6.029,0.024,-0.049,0.027,101.0,102.0,100.0,13.4,1505.3,326.3,-0.7,1.8,2470.359,13.32,0.054,153.9
2020-11-06T18:31:03,42.805,6.029,0.02,-0.041,0.018,101.0,103.0,100.0,13.4,1505.3,326.9,-0.7,1.8,2470.337,13.32,0.045,154.0
2020-11-06T18:34:03,42.805,6.029,-0.011,-0.021,0.024,100.0,103.0,99.0,13.4,1505.3,326.0,-0.7,1.9,2470.28,13.32,0.023,207.6
2020-11-06T18:37:03,42.805,6.029,0.035,-0.036,-0.004,100.0,105.0,99.0,13.4,1505.3,324.0,-0.7,1.9,2470.338,13.32,0.05,135.8
2020-11-06T18:40:03,42.805,6.029,0.008,-0.028,0.002,101.0,103.0,100.0,13.3,1505.3,327.8,-0.7,1.9,2470.336,13.32,0.029,164.1
2020-11-06T18:43:03,42.805,6.029,-0.017,-0.057,-0.056,101.0,105.0,100.0,13.4,1505.3,324.3,-0.7,1.8,2470.326,13.32,0.059,196.6
2020-11-06T18:46:03,42.805,6.029,0.035,-0.048,0.023,100.0,104.0,101.0,13.3,1505.3,325.1,-0.7,1.8,2470.318,13.32,0.059,143.9
2020-11-06T18:49:03,42.805,6.029,0.01,-0.045,-0.03,100.0,103.0,99.0,13.4,1505.3,324.7,-0.7,1.9,2470.344,13.32,0.046,167.5
2020-11-06T18:52:03,42.805,6.029,0.0,-0.034,0.032,101.0,104.0,99.0,13.4,1505.3,326.9,-0.7,1.8,2470.328,13.32,0.034,180.0
2020-11-06T18:55:03,42.805,6.029,-0.013,-0.052,-0.039,101.0,104.0,99.0,13.4,1505.3,326.3,-0.7,1.8,2470.304,13.32,0.053,194.0
2020-11-06T18:58:03,42.805,6.029,-0.006,-0.038,0.011,102.0,103.0,100.0,13.4,1505.3,325.7,-0.7,1.9,2470.344,13.32,0.038,189.0
2020-11-06T19:04:03,42.805,6.029,0.011,-0.062,-0.022,102.0,104.0,99.0,13.4,1505.2,326.2,-0.8,1.8,2470.38,13.3,0.062,169.9
2020-11-06T19:07:03,42.805,6.029,0.052,-0.045,0.057,101.0,104.0,100.0,13.3,1505.3,328.2,-0.7,1.8,2470.402,13.31,0.068,130.9
2020-11-06T19:10:03,42.805,6.029,0.0,-0.035,0.014,101.0,104.0,100.0,13.3,1505.3,325.1,-0.7,1.8,2470.344,13.32,0.035,180.0
2020-11-06T19:13:03,42.805,6.029,0.033,-0.019,0.022,102.0,103.0,104.0,13.3,1505.3,325.5,-0.7,1.8,2470.347,13.32,0.038,119.9
2020-11-06T19:16:03,42.805,6.029,0.01,-0.039,0.0,102.0,103.0,100.0,13.4,1505.3,324.1,-0.7,1.8,2470.365,13.32,0.04,165.6
2020-11-06T19:19:03,42.805,6.029,-0.01,-0.039,0.015,100.0,104.0,100.0,13.4,1505.3,323.7,-0.7,1.8,2470.332,13.32,0.04,194.4
2020-11-06T19:22:03,42.805,6.029,0.029,-0.033,0.033,102.0,104.0,100.0,13.4,1505.3,324.5,-0.7,1.8,2470.331,13.32,0.043,138.7
2020-11-06T19:25:03,42.805,6.029,0.004,-0.026,0.007,102.0,106.0,101.0,13.4,1505.3,326.3,-0.7,1.8,2470.347,13.32,0.026,171.3
2020-11-06T19:28:03,42.805,6.029,0.029,-0.039,0.024,101.0,104.0,99.0,13.4,1505.3,326.0,-0.7,1.8,2470.315,13.32,0.048,143.4
2020-11-06T19:31:03,42.805,6.029,-0.007,-0.03,-0.016,100.0,104.0,101.0,13.4,1505.3,324.0,-0.7,1.8,2470.324,13.32,0.03,193.1
2020-11-06T19:34:03,42.805,6.029,-0.016,-0.023,-0.024,102.0,106.0,98.0,13.3,1505.3,325.7,-0.7,1.9,2470.363,13.33,0.028,214.8
2020-11-06T19:37:03,42.805,6.029,0.024,-0.063,0.01,100.0,104.0,100.0,13.4,1505.3,324.5,-0.7,1.8,2470.339,13.33,0.067,159.1
2020-11-06T19:40:03,42.805,6.029,0.047,-0.034,0.048,101.0,103.0,99.0,13.3,1505.3,326.8,-0.7,1.8,2470.335,13.32,0.058,125.9
2020-11-06T19:43:03,42.805,6.029,0.048,-0.031,0.045,100.0,104.0,100.0,13.4,1505.3,325.9,-0.7,1.8,2470.356,13.33,0.057,122.9
2020-11-06T19:46:03,42.805,6.029,0.011,-0.037,-0.017,102.0,104.0,98.0,13.3,1505.3,323.4,-0.7,1.8,2470.348,13.33,0.038,163.4
2020-11-06T19:49:03,42.805,6.029,0.043,-0.022,0.038,102.0,105.0,100.0,13.4,1505.3,325.3,-0.7,1.8,2470.371,13.33,0.048,117.1
2020-11-06T19:52:03,42.805,6.029,-0.002,-0.047,0.002,101.0,103.0,99.0,13.4,1505.3,327.1,-0.7,1.8,2470.35,13.33,0.047,182.4
2020-11-06T19:55:03,42.805,6.029,0.035,-0.03,-0.01,102.0,105.0,100.0,13.4,1505.3,324.1,-0.7,1.8,2470.356,13.33,0.046,130.6
2020-11-06T19:58:03,42.805,6.029,0.03,-0.005,0.033,101.0,106.0,100.0,13.4,1505.3,323.1,-0.7,1.8,2470.363,13.33,0.03,99.5
2020-11-06T20:04:03,42.805,6.029,0.0,-0.024,-0.012,101.0,105.0,99.0,13.4,1505.3,326.9,-0.7,1.8,2470.411,13.31,0.024,180.0
2020-11-06T20:07:03,42.805,6.029,-0.001,-0.037,-0.002,101.0,103.0,100.0,13.4,1505.3,328.2,-0.8,1.9,2470.398,13.31,0.037,181.5
2020-11-06T20:10:03,42.805,6.029,-0.006,-0.031,-0.032,103.0,104.0,100.0,13.4,1505.3,328.4,-0.7,1.8,2470.402,13.32,0.031,191.0
2020-11-06T20:13:03,42.805,6.029,0.0,-0.041,-0.067,102.0,103.0,99.0,13.4,1505.3,327.6,-0.7,1.8,2470.354,13.32,0.041,180.0
2020-11-06T20:16:03,42.805,6.029,-0.007,-0.037,-0.031,101.0,104.0,100.0,13.4,1505.3,328.5,-0.7,1.8,2470.394,13.32,0.037,190.7
2020-11-06T20:19:03,42.805,6.029,0.026,-0.027,0.011,101.0,104.0,100.0,13.4,1505.3,327.6,-0.7,1.8,2470.338,13.32,0.037,136.1
2020-11-06T20:22:03,42.805,6.029,0.072,-0.033,0.078,101.0,105.0,99.0,13.4,1505.3,325.2,-0.7,1.9,2470.37,13.32,0.079,114.6
2020-11-06T20:25:03,42.805,6.029,-0.025,-0.042,-0.069,101.0,105.0,100.0,13.3,1505.3,324.6,-0.7,1.8,2470.381,13.32,0.048,210.8
2020-11-06T20:28:03,42.805,6.029,0.0,-0.045,-0.042,101.0,105.0,100.0,13.4,1505.3,326.6,-0.7,1.8,2470.377,13.32,0.045,180.0
2020-11-06T20:31:03,42.805,6.029,-0.001,-0.035,-0.001,102.0,105.0,100.0,13.4,1505.3,325.0,-0.7,1.8,2470.364,13.33,0.035,181.6
2020-11-06T20:34:03,42.805,6.029,0.0,-0.025,-0.016,101.0,104.0,100.0,13.4,1505.3,324.7,-0.7,1.8,2470.343,13.33,0.025,180.0
2020-11-06T20:37:03,42.805,6.029,-0.013,-0.023,-0.007,102.0,105.0,100.0,13.4,1505.3,325.6,-0.7,1.9,2470.373,13.33,0.026,209.5
2020-11-06T20:40:03,42.805,6.029,0.014,-0.008,0.029,102.0,104.0,100.0,13.4,1505.3,325.0,-0.7,1.9,2470.394,13.33,0.016,119.7
2020-11-06T20:43:03,42.805,6.029,0.024,-0.014,0.022,101.0,103.0,101.0,13.4,1505.3,325.2,-0.7,1.8,2470.355,13.33,0.027,120.3
2020-11-06T20:46:03,42.805,6.029,0.015,-0.009,0.0,101.0,106.0,99.0,13.3,1505.3,325.4,-0.7,1.8,2470.354,13.33,0.017,121.0
2020-11-06T20:49:03,42.805,6.029,0.022,-0.029,0.005,99.0,105.0,100.0,13.3,1505.3,324.5,-0.7,1.8,2470.363,13.33,0.036,142.8
2020-11-06T20:52:03,42.805,6.029,0.02,-0.025,0.0,101.0,104.0,100.0,13.4,1505.3,324.5,-0.7,1.8,2470.349,13.33,0.032,141.3
2020-11-06T20:55:03,42.805,6.029,0.018,-0.065,-0.031,102.0,104.0,100.0,13.4,1505.3,326.4,-0.7,1.9,2470.396,13.33,0.067,164.5
2020-11-06T20:58:03,42.805,6.029,0.044,-0.021,0.023,102.0,105.0,100.0,13.4,1505.3,325.5,-0.7,1.8,2470.42,13.33,0.048,115.5
2020-11-06T21:04:03,42.805,6.029,-0.005,-0.021,0.009,101.0,105.0,99.0,13.4,1505.3,326.8,-0.7,1.8,2470.417,13.31,0.021,193.4
2020-11-06T21:07:03,42.805,6.029,0.008,-0.01,0.007,103.0,104.0,99.0,13.4,1505.3,325.0,-0.7,1.8,2470.469,13.31,0.012,141.3
2020-11-06T21:10:03,42.805,6.029,0.017,-0.013,0.032,101.0,104.0,100.0,13.4,1505.3,325.3,-0.7,1.8,2470.454,13.32,0.021,127.4
2020-11-06T21:13:03,42.805,6.029,0.021,-0.006,0.036,102.0,103.0,100.0,13.4,1505.3,325.2,-0.7,1.8,2470.421,13.32,0.021,105.9
2020-11-06T21:16:03,42.805,6.029,0.024,-0.007,0.066,100.0,105.0,100.0,13.4,1505.3,326.6,-0.7,1.8,2470.395,13.33,0.025,106.3
2020-11-06T21:19:03,42.805,6.029,0.071,-0.028,0.06,101.0,105.0,100.0,13.4,1505.3,325.9,-0.7,1.9,2470.41,13.33,0.076,111.5
2020-11-06T21:22:03,42.805,6.029,0.05,-0.008,0.036,102.0,106.0,99.0,13.4,1505.3,326.5,-0.7,1.9,2470.429,13.33,0.05,99.1
2020-11-06T21:25:03,42.805,6.029,-0.005,-0.038,-0.024,103.0,107.0,98.0,13.4,1505.3,323.2,-0.7,1.8,2470.37,13.33,0.038,187.5
2020-11-06T21:28:03,42.805,6.029,-0.016,-0.04,-0.019,102.0,109.0,100.0,13.4,1505.3,325.8,-0.7,1.8,2470.392,13.33,0.043,201.8
2020-11-06T21:31:03,42.805,6.029,-0.011,-0.011,0.009,101.0,107.0,100.0,13.4,1505.3,324.0,-0.7,1.8,2470.387,13.33,0.015,225.0
2020-11-06T21:34:03,42.805,6.029,-0.009,-0.026,0.003,101.0,105.0,101.0,13.4,1505.3,326.7,-0.7,1.9,2470.394,13.33,0.027,199.1
2020-11-06T21:37:03,42.805,6.029,0.001,-0.01,0.005,101.0,107.0,100.0,13.4,1505.3,325.2,-0.7,1.8,2470.409,13.33,0.01,174.3
2020-11-06T21:40:03,42.805,6.029,-0.013,-0.023,0.004,102.0,106.0,100.0,13.3,1505.3,325.6,-0.7,1.8,2470.382,13.33,0.026,209.5
2020-11-06T21:43:03,42.805,6.029,-0.021,-0.029,-0.055,102.0,106.0,100.0,13.4,1505.3,323.9,-0.7,1.8,2470.38,13.33,0.035,215.9
2020-11-06T21:46:03,42.805,6.029,-0.031,-0.04,-0.047,101.0,107.0,100.0,13.4,1505.3,326.5,-0.7,1.8,2470.405,13.33,0.05,217.8
2020-11-06T21:49:03,42.805,6.029,0.006,-0.029,-0.024,103.0,107.0,100.0,13.4,1505.3,328.5,-0.7,1.8,2470.407,13.33,0.029,168.3
2020-11-06T21:52:03,42.805,6.029,-0.017,-0.026,-0.007,102.0,105.0,102.0,13.4,1505.3,323.2,-0.7,1.8,2470.38,13.33,0.031,213.2
2020-11-06T21:55:03,42.805,6.029,-0.07,-0.037,-0.086,101.0,106.0,100.0,13.4,1505.3,323.5,-0.7,1.9,2470.368,13.33,0.079,242.1
2020-11-06T22:04:03,42.805,6.029,0.004,-0.035,-0.001,101.0,106.0,100.0,13.4,1505.2,323.2,-0.8,1.8,2470.482,13.29,0.035,173.5
2020-11-06T22:07:03,42.805,6.029,-0.023,-0.039,-0.024,101.0,107.0,98.0,13.4,1505.3,326.6,-0.7,1.8,2470.539,13.31,0.045,210.5
2020-11-06T22:10:03,42.805,6.029,-0.052,-0.012,-0.053,101.0,106.0,98.0,13.3,1505.3,324.7,-0.7,1.8,2470.462,13.31,0.053,257.0
2020-11-06T22:13:03,42.805,6.029,0.032,-0.021,0.04,100.0,106.0,99.0,13.4,1505.3,324.4,-0.7,1.8,2470.471,13.32,0.038,123.3
2020-11-06T22:16:03,42.805,6.029,0.05,-0.013,0.051,102.0,105.0,100.0,13.3,1505.3,325.4,-0.7,1.8,2470.48,13.32,0.051,104.6
2020-11-06T22:19:03,42.805,6.029,0.044,-0.019,0.062,100.0,106.0,100.0,13.3,1505.3,326.9,-0.7,1.9,2470.465,13.32,0.047,113.4
2020-11-06T22:22:03,42.805,6.029,0.037,-0.017,0.071,101.0,106.0,99.0,13.4,1505.3,325.6,-0.7,1.8,2470.449,13.33,0.04,114.7
2020-11-06T22:25:03,42.805,6.029,0.037,-0.03,0.004,100.0,104.0,102.0,13.4,1505.3,324.2,-0.7,1.8,2470.38,13.33,0.047,129.0
2020-11-06T22:28:03,42.805,6.029,0.026,0.001,0.051,100.0,105.0,100.0,13.4,1505.3,326.9,-0.7,1.9,2470.362,13.33,0.026,87.8
2020-11-06T22:31:03,42.805,6.029,-0.014,-0.016,0.016,100.0,104.0,99.0,13.3,1505.3,324.0,-0.7,1.8,2470.397,13.33,0.021,221.2
2020-11-06T22:34:03,42.805,6.029,0.038,-0.018,0.013,102.0,102.0,99.0,13.4,1505.3,323.9,-0.7,1.9,2470.364,13.33,0.042,115.3
2020-11-06T22:37:03,42.805,6.029,0.049,0.0,0.083,101.0,103.0,99.0,13.4,1505.3,322.9,-0.7,1.8,2470.384,13.33,0.049,90.0
2020-11-06T22:40:03,42.805,6.029,0.091,-0.009,0.069,100.0,103.0,99.0,13.4,1505.3,324.9,-0.7,1.8,2470.388,13.33,0.091,95.6
2020-11-06T22:43:03,42.805,6.029,0.076,-0.025,0.074,102.0,104.0,99.0,13.3,1505.4,328.2,-0.7,1.8,2470.362,13.34,0.08,108.2
2020-11-06T22:46:03,42.805,6.029,0.074,-0.017,0.073,101.0,104.0,99.0,13.4,1505.4,323.9,-0.8,1.8,2470.401,13.34,0.075,102.9
2020-11-06T22:49:03,42.805,6.029,0.118,0.001,0.124,100.0,103.0,100.0,13.3,1505.4,326.5,-0.7,1.8,2470.425,13.34,0.118,89.5
2020-11-06T22:52:03,42.805,6.029,0.035,-0.009,0.04,100.0,104.0,99.0,13.4,1505.4,322.8,-0.7,1.8,2470.4,13.34,0.036,104.4
2020-11-06T22:55:03,42.805,6.029,0.082,-0.015,0.122,102.0,104.0,99.0,13.3,1505.4,327.6,-0.7,1.8,2470.407,13.34,0.083,100.4
2020-11-06T22:58:03,42.805,6.029,0.084,-0.004,0.088,100.0,104.0,99.0,13.3,1505.4,325.1,-0.7,1.8,2470.395,13.34,0.084,92.7